Location: Lane
(33.5226°N, 79.8788°W)
Time: 17:09:04
(UTC+00:00)

Transit 2A - Pass Details

Date: 05 October 2022
Orbit: 598 x 959 km, 66.7° (Epoch: 06 December)

Event Time Altitude Azimuth Distance (km) Brightness Sun altitude
Rises 11:30:29 0° 355° (N) 2,990 8.9 2.0°
Reaches altitude 10° 11:33:47 10° 20° (NNE) 2,142 8.5 2.7°
Maximum altitude 11:36:25 14° 53° (NE) 1,913 8.8 3.2°
Drops below altitude 10° 11:39:10 10° 86° (E) 2,259 10.5 3.8°
Sets 11:42:48 0° 110° (ESE) 3,270 11.5 4.5°
